Regional Weather Roundup
Issued by NWS

Home | Current Version | Previous Version | Text Only | Print | Product List | Glossary On
Versions: 1 2 3 4 5 6 7 8 9 10 11 12 13 14 15 16 17 18 19 20 21 22 23 24 25 26 27 28 29 30 31 32 33 34 35 36 37 38 39 40 41 42 43 44 45 46 47 48 49 50
614
ASUS43 KDMX 282201
RWRIA

WEATHER ROUNDUP FOR IOWA
NATIONAL WEATHER SERVICE DES MOINES IA
500 PM CDT FRI APR 28 2017

NOTE: "FAIR" INDICATES FEW OR NO CLOUDS BELOW 12,000 FEET WITH NO
SIGNIFICANT WEATHER AND/OR OBSTRUCTIONS TO VISIBILITY.

* - THESE STATIONS ARE NOT NWS STATIONS...THUS NOT UNDER NWS
QUALITY CONTROL.  THEY ALSO DO NOT REPORT WEATHER SUCH
AS PRECIPITATION OR FOG.

IAZ001>003-012>014-020>022-031>034-043>046-282300-
   NORTHWEST IOWA

CITY           SKY/WX    TMP DP  RH WIND       PRES   REMARKS
CARROLL *      CLOUDY    41  41 100 NE17      29.88R
CHEROKEE *     LGT RAIN  43  35  74 NE10      29.94R
DENISON *      PTSUNNY   41  39  93 NE13G20   29.90R
LE MARS *      CLOUDY    46  34  61 N13G22    29.94S
ORANGE CITY *  MOSUNNY   45  34  65 NE12      29.94R
SHELDON *      CLOUDY    46  32  57 NE15      29.93R
SIOUX CITY     CLOUDY    46  38  73 N13       29.92R
SPENCER        CLOUDY    46  33  60 NE16      29.93R
STORM LAKE *   CLOUDY    43  34  70 NE15      29.91R
$$

IAZ055>058-069>071-079>083-090>094-282300-
   SOUTHWEST IOWA

CITY           SKY/WX    TMP DP  RH WIND       PRES   REMARKS
ATLANTIC *     MOSUNNY   41  39  93 NE13G20   29.86R FOG
AUDUBON *      DRIZZLE   41  37  87 E13       29.88R
CLARINDA *     CLOUDY    45  41  87 NE15      29.84R
COUNCIL BLFS * PTSUNNY   39  39 100 NE13G20   29.87R FOG     WCI  32
CRESTON *      CLOUDY    41  41 100 NE25      29.83R
HARLAN  *      PTSUNNY   41  39  93 NE13      29.91R FOG
LAMONI         LGT RAIN  41  39  93 NE16      29.80R
RED OAK *      CLOUDY    43  39  87 NE14G21   29.84R
SHENANDOAH *   MIX PCPN  43  41  93 NE16G25   29.84R
$$

IAZ047>049-059>061-072>074-084-282300-
   CENTRAL IOWA

CITY           SKY/WX    TMP DP  RH WIND       PRES   REMARKS
AMES           CLOUDY    43  41  93 NE12      29.89R
ANKENY *       CLOUDY    43  39  87 NE16      29.88R
BOONE *        CLOUDY    43  41  93 NE20G25   29.87R
CHARITON *     PTSUNNY   41  39  93 NE15      29.83R
DES MOINES     CLOUDY    44  40  85 NE14      29.87R
GRINNELL*      DRIZZLE   41  39  93 NE14      29.87S
KNOXVILLE *    CLOUDY    43  39  87 NE14G20   29.84R
MARSHALLTOWN   CLOUDY    43  40  89 NE16      29.87R
NEWTON *       PTSUNNY   41  39  93 NE13G20   29.86R FOG
PELLA *        CLOUDY    42  41  96 NE9G16    29.87R
PERRY *        CLOUDY    42  39  91 NE13      29.88R
$$

IAZ004>006-015-016-023>025-035-036-282300-
   NORTH CENTRAL IOWA

CITY           SKY/WX    TMP DP  RH WIND       PRES   REMARKS
ALGONA *       CLOUDY    45  36  70 NE16      29.92R
CLARION *      MOSUNNY   43  39  87 NE16      29.89R
ESTHERVILLE    CLOUDY    44  34  67 NE13      29.94R
FORT DODGE *   CLOUDY    41  34  75 NE12G17   29.90S
MASON CITY     CLOUDY    45  34  65 NE16      29.89F
FOREST CITY *  RAIN      43  30  61 NE15      29.89F
WEBSTER CITY * CLOUDY    41  37  87 NE15      29.87R
IOWA FALLS *   CLOUDY    42  37  83 N17       29.89R
$$

IAZ007>011-017>019-026>030-037>042-050>054-066-282300-
   NORTHEAST IOWA

CITY           SKY/WX    TMP DP  RH WIND       PRES   REMARKS
CEDAR RAPIDS   LGT RAIN  42  42 100 NE10G18   29.84S FOG
CHARLES CITY * LGT RAIN  43  36  75 N8        29.94R
CLINTON *      RAIN      46  45  96 NE14      29.85R FOG
DECORAH *      DRIZZLE   45  34  65 N9        29.90R
DUBUQUE        CLOUDY    44  42  93 NE10      29.87F
MONTICELLO *   CLOUDY    45  41  87 NE8G16    29.86F
OELWEIN *      RAIN      43  41  93 N12       29.90R
WATERLOO       LGT RAIN  43  39  86 N8        29.90R
$$

IAZ064-065-067-068-078-282300-
   EAST CENTRAL IOWA

CITY           SKY/WX    TMP DP  RH WIND       PRES   REMARKS
DAVENPORT      CLOUDY    47  45  93 N13       29.85R
IOWA CITY      LGT RAIN  44  41  89 NE12      29.85S
MUSCATINE *    CLOUDY    46  45  93 NE13      29.85R FOG
QUAD CITIES    CLOUDY    50  46  86 NE5       29.83R
$$

IAZ062-063-075>077-085>089-095>099-282300-
   SOUTHEAST IOWA

CITY           SKY/WX    TMP DP  RH WIND       PRES   REMARKS
BURLINGTON     CLOUDY    54  52  93 N8        29.79R FOG
FAIRFIELD *    CLOUDY    45  43  93 NE12G17   29.82R FOG
FORT MADISON * CLOUDY    54  52  94 N7        29.81R FOG
KEOKUK *       CLOUDY    55  54  94 N9        29.78R
OSKALOOSA *    RAIN      42  40  96 N12       29.85R
OTTUMWA        LGT RAIN  43  42  97 NE9       29.83R FOG
WASHINGTON *   CLOUDY    45  43  93 NE15      29.83S FOG
$$

ABBREVIATIONS USED IN REMARKS
   TC - TEMPERATURES IN CELSIUS
  WCI - WIND CHILL INDEX
   HX - HEAT INDEX
  VSB - VISIBILITY
$$





USA.gov is the U.S. government's official web portal to all federal, state and local government web resources and services.